Regional Weather Roundup
Issued by NWS

Home | Current Version | Previous Version | Text Only | Print | Product List | Glossary On
Versions: 1 2 3 4 5 6 7 8 9 10 11 12 13 14 15 16 17 18 19 20 21 22 23 24 25 26 27 28 29 30 31 32 33 34 35 36 37 38 39 40 41 42 43 44 45 46 47 48 49 50
000
ASUS46 KPQR 110210
RWROR

OREGON REGIONAL WEATHER ROUNDUP
NATIONAL WEATHER SERVICE PORTLAND OR
600 PM PST SUN DEC 10 2017

NOTE: "FAIR" INDICATES FEW OR NO CLOUDS BELOW 12,000 FEET WITH
NO SIGNIFICANT WEATHER AND/OR OBSTRUCTIONS TO VISIBILITY.

ORZ001>013-110300-
NORTHWEST OREGON


CITY           SKY/WX    TMP DP  RH WIND       PRES   REMARKS
ASTORIA        CLEAR     42  30  62 E7        30.23F
NEWPORT        CLEAR     45  30  57 E16G25    30.22F
PORTLAND       PTCLDY    38  25  59 E18       30.35F WCI  28
VANCOUVER WA   CLEAR     39  25  57 E10       30.35F WCI  32
SCAPPOOSE      CLEAR     38  25  59 S7        30.35F WCI  33
HILLSBORO      CLEAR     31  25  78 CALM      30.35F
AURORA         CLEAR     35  25  66 N3        30.34F
MCMINNVILLE    CLEAR     36  27  69 N6        30.34F WCI  31
SALEM          CLEAR     35  25  66 N7        30.31F WCI  29
CORVALLIS      CLEAR     32  28  85 CALM      30.32F
EUGENE         CLEAR     30  28  92 S3        30.31F
$$

ORZ021-028-110300-
SOUTHWEST OREGON


CITY           SKY/WX    TMP DP  RH WIND       PRES   REMARKS
NORTH BEND     CLEAR     44  37  76 SE7       30.21S
BROOKINGS      CLEAR     53  39  59 SE3       30.19F
ROSEBURG       FOG       33  33 100 CALM      30.30F VSB 1/4
SEXTON SUMMIT  CLEAR     50  13  22 SE21      30.27F
GRANTS PASS    FOG       32  32 100 CALM      30.35F VSB<1/4
MEDFORD        CLEAR     39  33  79 CALM      30.29S
$$

ORZ014>016-041-110300-
COLUMBIA GORGE


CITY           SKY/WX    TMP DP  RH WIND       PRES   REMARKS
TROUTDALE      CLEAR     38  24  57 E22G35    30.37F WCI  27
HOOD RIVER     CLOUDY    32  27  80 E8        30.67S WCI  25
THE DALLES     CLOUDY    34  25  69 SE9       30.70S WCI  27
$$

ORZ029>031-041-044-049-050-061>064-502-503-505>511-110300-
EASTERN OREGON


CITY           SKY/WX    TMP DP  RH WIND       PRES   REMARKS
MADRAS         CLOUDY   N/A N/A N/A N3        30.57S
REDMOND        PTCLDY    21  18  88 W7        30.50S WCI  12
BEND           PTCLDY    21  19  93 CALM      30.50S
PRINEVILLE     PTCLDY    21  19  93 CALM      30.50R
KLAMATH FALLS  CLEAR     31  24  75 N9        30.38F WCI  23
LAKEVIEW       CLEAR     28  21  75 N3        30.42F
HERMISTON      CLOUDY    31  26  82 CALM      30.69S
PENDLETON      CLOUDY    27  24  89 NW6       30.63S WCI  20
JOHN DAY       PTCLDY    38  21  50 E8        30.47R WCI  32
MEACHAM        PTCLDY    26  18  71 CALM      30.47F
LA GRANDE      CLEAR     26  19  74 NE10      30.58F WCI  16
BAKER CITY     PTCLDY    21  16  81 E5        30.61S WCI  15
BURNS          MOCLDY    12  11  95 NW5       30.56S WCI   4
ROME             N/A     20  16  84 W3        30.58S
ONTARIO        CLOUDY    30  22  72 S3        30.71F
$$



USA.gov is the U.S. government's official web portal to all federal, state and local government web resources and services.